DW4236 Weather Reports


time (UTC)temp
F
wind
direction
speed
knots
gust
knots
rain 1hr
in
rain 24hr
in
rain mn
in
humidity
%
barometer
mb
20260509115105 48 92 0.0 2.6 0.00 0.06 0.04 92 1014.4
20260509114604 48 92 1.7 2.6 0.00 0.06 0.04 92 1014.4
20260509114105 48 91 0.9 2.6 0.00 0.06 0.04 92 1014.3
20260509113604 48 91 0.0 1.7 0.00 0.06 0.04 92 1014.4
20260509113105 48 91 0.0 0.9 0.00 0.06 0.04 93 1014.4
20260509112606 47 91 0.0 0.9 0.00 0.06 0.04 93 1014.4
20260509112104 47 92 1.7 2.6 0.00 0.06 0.04 93 1014.4
20260509111104 47 92 0.0 1.7 0.00 0.06 0.04 92 1014.3
20260509110605 47 92 0.0 0.0 0.00 0.06 0.04 92 1014.2
20260509110104 47 92 0.0 0.0 0.00 0.06 0.04 93 1014.2
20260509105104 47 92 0.9 2.6 0.00 0.06 0.04 92 1014.2
20260509104605 47 92 0.9 2.6 0.00 0.06 0.04 93 1014.0
20260509104108 47 92 1.7 2.6 0.00 0.06 0.04 93 1014.1
20260509103605 47 92 0.0 1.7 0.00 0.06 0.04 92 1014.2
20260509103106 47 92 1.7 2.6 0.00 0.06 0.04 93 1014.2
20260509102606 47 99 0.9 4.3 0.00 0.06 0.04 92 1014.1
20260509101605 47 104 1.7 2.6 0.00 0.06 0.04 92 1014.2
20260509101104 47 113 0.0 4.3 0.00 0.06 0.04 93 1014.1
20260509100606 47 91 2.6 5.2 0.00 0.06 0.04 92 1014.2
20260509100104 47 125 0.9 4.3 0.00 0.06 0.04 92 1014.2
20260509095604 47 111 0.9 2.6 0.00 0.06 0.04 92 1014.3
20260509095104 47 111 0.9 2.6 0.00 0.06 0.04 92 1014.3
20260509094606 47 112 1.7 2.6 0.00 0.06 0.04 92 1014.4
20260509094104 48 113 1.7 4.3 0.00 0.06 0.04 92 1014.3
20260509093605 48 127 1.7 4.3 0.00 0.06 0.04 92 1014.2
20260509093104 48 127 1.7 2.6 0.00 0.06 0.04 92 1014.3
20260509092604 48 78 0.9 2.6 0.00 0.06 0.04 92 1014.2
20260509092104 48 76 0.0 0.0 0.00 0.06 0.04 92 1014.3
20260509091106 48 100 0.9 1.7 0.00 0.06 0.04 92 1014.4
20260509090106 49 99 1.7 2.6 0.00 0.06 0.04 92 1014.4
20260509085604 49 101 0.9 2.6 0.00 0.06 0.04 92 1014.4
20260509085104 49 98 0.9 1.7 0.01 0.06 0.04 92 1014.4
20260509084604 49 98 1.7 2.6 0.01 0.06 0.04 92 1014.4
20260509084104 49 95 0.0 1.7 0.01 0.06 0.04 92 1014.4
20260509083604 50 95 0.9 2.6 0.01 0.06 0.04 92 1014.4
20260509083104 50 95 0.0 0.0 0.01 0.06 0.04 92 1014.3
20260509082604 50 95 0.0 0.0 0.01 0.06 0.04 91 1014.4
20260509082105 50 95 0.9 1.7 0.02 0.06 0.04 91 1014.4
20260509081604 50 95 0.0 0.0 0.02 0.06 0.04 91 1014.3
20260509081104 50 95 0.0 0.0 0.02 0.06 0.04 91 1014.3
20260509080104 50 95 0.0 0.0 0.04 0.06 0.04 91 1014.2
20260509075105 50 95 0.0 0.0 0.03 0.05 0.03 90 1014.2
20260509072604 50 95 0.9 1.7 0.03 0.05 0.03 89 1013.9
20260509072105 50 95 1.7 2.6 0.02 0.04 0.02 89 1013.8
20260509071605 50 95 0.9 0.9 0.02 0.04 0.02 89 1013.9
20260509070604 50 95 0.0 0.0 0.00 0.02 0.00 88 1014.1
20260509070104 50 95 0.0 0.0 0.00 0.02 0.00 88 1014.1
20260509065604 50 95 0.0 0.0 0.00 0.02 0.00 88 1014.1
20260509065105 50 95 0.0 0.0 0.00 0.02 0.00 88 1014.0
20260509064604 51 95 0.0 0.0 0.00 0.02 0.00 88 1014.1
20260509064104 51 95 0.0 0.0 0.00 0.02 0.00 88 1014.2
20260509062106 50 97 0.0 1.7 0.00 0.02 0.00 88 1014.0
20260509061104 50 106 0.9 2.6 0.00 0.02 0.00 89 1014.1
20260509060605 50 105 0.0 1.7 0.00 0.02 0.00 89 1014.2
20260509060105 50 105 0.9 2.6 0.00 0.03 0.00 89 1014.1
20260509055605 50 120 0.9 2.6 0.00 0.03 0.00 90 1014.1
20260509055104 50 95 0.0 1.7 0.00 0.04 0.00 90 1014.1
20260509054605 50 95 0.0 0.9 0.00 0.04 0.00 90 1014.3
20260509054104 49 93 0.0 1.7 0.00 0.04 0.00 90 1014.4
20260509053604 49 92 0.0 1.7 0.00 0.05 0.00 90 1014.4
20260509053104 49 92 0.9 2.6 0.00 0.06 0.00 90 1014.5
20260509052605 49 308 0.0 0.0 0.00 0.06 0.00 90 1014.5
20260509052104 49 308 0.0 0.0 0.00 0.07 0.00 90 1014.5
20260509051105 49 308 0.0 0.0 0.00 0.07 0.00 89 1014.5
20260509050604 49 308 0.0 0.0 0.00 0.07 0.00 89 1014.5
20260509050104 49 308 0.0 0.0 0.00 0.08 0.00 89 1014.5
20260509045605 49 308 0.0 0.0 0.00 0.08 0.00 89 1014.6
20260509045104 49 308 0.0 0.0 0.00 0.08 0.00 88 1014.6
20260509044605 49 308 0.0 0.0 0.00 0.08 0.00 88 1014.6
20260509044104 49 308 0.0 0.0 0.00 0.08 0.00 88 1014.5
20260509043604 49 308 0.0 0.0 0.00 0.08 0.00 88 1014.5
20260509043105 49 308 0.0 0.0 0.00 0.08 0.00 88 1014.5
20260509042606 49 308 0.0 0.0 0.00 0.08 0.00 87 1014.5
20260509042104 50 308 0.0 0.0 0.00 0.08 0.00 87 1014.5
20260509041604 50 308 0.0 0.0 0.00 0.08 0.00 87 1014.5
20260509041104 50 308 0.0 0.0 0.00 0.08 0.00 86 1014.6
20260509040605 50 308 0.0 0.0 0.00 0.08 0.00 86 1014.6
20260509040104 51 308 0.0 0.0 0.00 0.08 0.00 86 1014.7
20260509035605 51 308 0.0 0.0 0.00 0.08 0.08 86 1014.6
20260509035106 51 308 0.0 0.0 0.00 0.08 0.08 86 1014.6
20260509034604 51 308 0.0 0.0 0.01 0.08 0.08 85 1014.6
20260509034105 51 308 0.0 0.0 0.01 0.08 0.08 85 1014.7
20260509033604 51 308 0.0 0.0 0.01 0.08 0.08 84 1014.7
20260509033104 51 308 0.0 0.0 0.01 0.08 0.08 84 1014.6
20260509032605 51 308 0.0 0.0 0.01 0.08 0.08 83 1014.6
20260509032105 52 308 0.0 0.0 0.01 0.08 0.08 82 1014.5
20260509031604 52 308 0.0 0.0 0.01 0.08 0.08 82 1014.6
20260509031104 52 308 0.0 0.0 0.01 0.08 0.08 81 1014.6
20260509030104 52 308 0.0 0.0 0.01 0.08 0.08 79 1014.4
20260509025604 52 308 0.0 0.0 0.01 0.08 0.08 78 1014.3
20260509025105 52 308 0.0 0.0 0.01 0.08 0.08 77 1014.3
20260509024604 52 308 0.0 0.0 0.00 0.07 0.07 76 1014.3
20260509024105 52 308 0.0 0.0 0.00 0.07 0.07 75 1014.3
20260509023604 52 308 0.0 0.0 0.00 0.07 0.07 75 1014.2
20260509023104 52 308 0.0 0.0 0.00 0.07 0.07 75 1014.2
20260509022605 52 308 0.0 0.0 0.00 0.07 0.07 74 1014.1
20260509021604 52 308 0.0 0.0 0.00 0.07 0.07 74 1014.1
20260509020604 52 308 0.0 0.0 0.00 0.07 0.07 73 1014.1
20260509020104 52 308 0.0 0.0 0.00 0.07 0.07 73 1014.1
20260509015605 52 308 0.0 0.0 0.00 0.07 0.07 73 1014.1
20260509015104 52 308 0.0 0.0 0.00 0.07 0.07 72 1014.0
20260509014604 52 308 0.0 0.0 0.00 0.07 0.07 72 1014.1
20260509014105 52 308 0.0 0.0 0.00 0.07 0.07 73 1014.0
20260509013604 52 308 0.0 0.0 0.00 0.07 0.07 73 1013.9
20260509012605 51 308 0.0 0.0 0.00 0.07 0.07 72 1013.9
20260509012104 51 308 0.0 0.0 0.00 0.07 0.07 72 1013.9
20260509011605 51 308 0.0 0.0 0.00 0.07 0.07 71 1013.9
20260509011104 51 308 0.0 0.0 0.00 0.07 0.07 70 1013.7
20260509010605 51 308 0.0 0.0 0.00 0.07 0.07 70 1013.7
20260509010104 52 308 0.0 0.9 0.00 0.07 0.07 69 1013.6
20260509005604 52 308 0.0 0.0 0.00 0.07 0.07 68 1013.5
20260509005104 53 308 0.0 0.0 0.00 0.07 0.07 66 1013.4
20260509004604 53 308 0.0 0.0 0.00 0.07 0.07 66 1013.3
20260509004104 53 308 0.0 0.0 0.00 0.07 0.07 64 1013.2
20260509003605 54 308 0.0 0.0 0.00 0.07 0.07 63 1013.2
20260509003104 54 308 0.0 0.0 0.00 0.07 0.07 62 1013.0
20260509002604 55 308 0.0 0.0 0.00 0.07 0.07 61 1013.0
20260509002105 55 308 0.0 0.0 0.00 0.07 0.07 60 1012.9
20260509001604 56 308 0.0 1.7 0.00 0.07 0.07 59 1012.8
20260509000605 57 308 0.0 0.0 0.00 0.07 0.07 57 1012.8
20260509000104 57 308 0.0 0.9 0.00 0.07 0.07 56 1012.8
20260508235604 57 308 0.0 0.9 0.00 0.07 0.07 55 1012.7
20260508235104 57 308 0.0 1.7 0.00 0.07 0.07 54 1012.7
20260508234604 58 308 0.9 2.6 0.00 0.07 0.07 53 1012.6
20260508234104 58 308 0.9 2.6 0.00 0.07 0.07 53 1012.5
20260508233604 58 315 0.0 2.6 0.00 0.07 0.07 53 1012.6
20260508232604 58 315 1.7 2.6 0.00 0.07 0.07 52 1012.6
20260508232105 58 315 0.9 2.6 0.00 0.07 0.07 53 1012.6
20260508231604 58 315 0.0 2.6 0.00 0.07 0.07 53 1012.5
20260508231105 59 315 0.0 1.7 0.00 0.07 0.07 53 1012.5
20260508230604 59 315 1.7 2.6 0.00 0.07 0.07 52 1012.6
20260508225604 59 315 0.0 2.6 0.00 0.07 0.07 51 1012.3
20260508225104 59 315 1.7 2.6 0.00 0.07 0.07 51 1012.2
20260508224605 59 329 0.9 2.6 0.00 0.07 0.07 50 1012.1
20260508224104 59 293 2.6 5.2 0.00 0.07 0.07 50 1012.2
20260508223605 59 350 0.9 2.6 0.00 0.07 0.07 50 1012.1
20260508223104 59 357 0.9 8.7 0.00 0.07 0.07 50 1012.2
20260508222604 59 335 2.6 5.2 0.00 0.07 0.07 50 1012.2
20260508222105 59 300 2.6 6.1 0.00 0.07 0.07 51 1012.1
20260508221604 59 310 1.7 7.0 0.00 0.07 0.07 51 1012.1
20260508221105 59 293 2.6 7.0 0.00 0.07 0.07 50 1012.0
20260508220604 59 306 1.7 6.1 0.00 0.07 0.07 51 1012.0
20260508220105 59 292 3.5 7.0 0.00 0.07 0.07 50 1012.1
20260508215104 61 290 4.3 8.7 0.00 0.07 0.07 48 1011.9
20260508214604 61 312 1.7 6.1 0.00 0.07 0.07 48 1011.9
20260508214104 61 9 1.7 5.2 0.00 0.07 0.07 48 1012.1
20260508213604 60 19 0.9 5.2 0.00 0.07 0.07 49 1012.1
20260508213105 59 297 2.6 7.0 0.00 0.07 0.07 51 1012.2
20260508212604 59 310 2.6 7.0 0.00 0.07 0.07 51 1012.2
20260508212104 59 339 2.6 7.0 0.00 0.07 0.07 50 1012.2
20260508211104 60 334 5.2 10.4 0.00 0.07 0.07 48 1012.2
20260508210604 60 295 3.5 7.8 0.00 0.07 0.07 49 1012.1
20260508210105 59 311 2.6 7.8 0.00 0.07 0.07 50 1012.3
20260508205605 59 319 2.6 10.4 0.00 0.07 0.07 51 1012.3
20260508205104 59 336 2.6 10.4 0.00 0.07 0.07 51 1012.3
20260508204605 60 347 1.7 7.8 0.00 0.07 0.07 52 1012.3
20260508204105 61 348 3.5 11.3 0.00 0.07 0.07 49 1012.2
20260508203605 61 328 5.2 11.3 0.00 0.07 0.07 53 1012.1
20260508203104 61 275 5.2 10.4 0.00 0.07 0.07 53 1012.1
20260508202604 61 325 5.2 11.3 0.00 0.07 0.07 54 1012.1
20260508202104 61 339 3.5 12.2 0.00 0.07 0.07 53 1012.2
20260508201605 61 303 6.1 17.4 0.00 0.07 0.07 53 1012.1
20260508201104 61 306 4.3 8.7 0.00 0.07 0.07 58 1012.1
20260508200604 60 311 4.3 8.7 0.00 0.07 0.07 59 1012.0
20260508200104 59 287 3.5 7.8 0.00 0.07 0.07 61 1011.9
20260508195604 58 281 6.1 10.4 0.00 0.07 0.07 59 1012.4
20260508194604 60 298 3.5 8.7 0.00 0.07 0.07 57 1012.3
20260508193605 60 313 5.2 11.3 0.00 0.07 0.07 57 1012.4
20260508193104 59 290 4.3 10.4 0.00 0.07 0.07 62 1012.6
20260508192604 59 273 4.3 10.4 0.00 0.07 0.07 62 1012.4
20260508192104 57 297 4.3 10.4 0.01 0.07 0.07 63 1012.7
20260508191605 56 305 0.0 2.6 0.01 0.07 0.07 64 1012.8
20260508191104 56 315 0.9 5.2 0.01 0.07 0.07 65 1012.8
20260508190604 56 295 1.7 7.0 0.01 0.07 0.07 65 1012.8
20260508185604 56 341 1.7 2.6 0.01 0.07 0.07 67 1012.9
20260508185104 56 295 2.6 7.0 0.01 0.07 0.07 67 1012.9
20260508184604 56 51 0.9 5.2 0.01 0.07 0.07 69 1012.8
20260508184104 55 351 0.9 2.6 0.01 0.07 0.07 73 1012.8
20260508183605 54 0 2.6 7.8 0.01 0.07 0.07 72 1012.9
20260508183104 54 49 3.5 8.7 0.01 0.07 0.07 69 1013.0
20260508182104 56 49 3.5 10.4 0.00 0.06 0.06 63 1013.0
20260508181605 57 346 3.5 8.7 0.00 0.06 0.06 60 1012.9
20260508181104 57 358 1.7 2.6 0.00 0.06 0.06 57 1012.8
20260508180604 57 327 1.7 5.2 0.00 0.06 0.06 58 1012.6
20260508175604 57 287 6.1 10.4 0.00 0.06 0.06 55 1012.4
20260508175104 58 311 4.3 10.4 0.00 0.06 0.06 55 1012.3
20260508174604 58 294 5.2 11.3 0.00 0.06 0.06 53 1012.3
20260508174106 59 246 2.6 10.4 0.00 0.06 0.06 54 1012.3
20260508173604 60 270 3.5 11.3 0.00 0.06 0.06 56 1012.4
20260508173104 59 287 4.3 8.7 0.00 0.06 0.06 57 1012.5
20260508172605 58 328 6.1 10.4 0.00 0.06 0.06 57 1012.6
20260508172104 57 295 4.3 10.4 0.00 0.06 0.06 57 1012.8
20260508171603 56 293 2.6 7.0 0.00 0.06 0.06 57 1012.9
20260508171104 56 323 2.6 8.7 0.00 0.06 0.06 56 1013.0
20260508170604 57 306 5.2 10.4 0.00 0.06 0.06 56 1012.9
20260508170104 57 292 2.6 10.4 0.00 0.06 0.06 57 1012.9
20260508165605 57 292 2.6 10.4 0.00 0.06 0.06 59 1013.0
20260508165104 57 309 2.6 10.4 0.00 0.06 0.06 59 1013.0
20260508164604 57 303 6.1 10.4 0.00 0.06 0.06 56 1013.0
20260508163604 56 269 1.7 7.8 0.00 0.06 0.06 59 1013.1
20260508162605 56 348 4.3 8.7 0.00 0.06 0.06 55 1013.1
20260508162104 56 310 2.6 7.8 0.00 0.06 0.06 57 1013.1
20260508161104 57 302 2.6 10.4 0.00 0.06 0.06 56 1013.2
20260508160604 57 285 3.5 7.8 0.00 0.06 0.06 56 1013.3
20260508160104 56 310 3.5 10.4 0.00 0.06 0.06 57 1013.3
20260508155604 56 309 5.2 10.4 0.00 0.06 0.06 55 1013.5
20260508155105 57 302 6.1 13.0 0.00 0.06 0.06 54 1013.4
20260508154604 58 289 6.1 17.4 0.00 0.06 0.06 55 1013.3
20260508153604 56 299 6.1 10.4 0.00 0.06 0.06 53 1013.3
20260508153104 56 265 3.5 7.8 0.00 0.06 0.06 57 1013.3
20260508152604 56 301 5.2 7.8 0.00 0.06 0.06 56 1013.2
20260508151604 56 350 3.5 7.8 0.00 0.06 0.06 54 1013.2
20260508151104 57 335 3.5 10.4 0.00 0.06 0.06 54 1013.3
20260508150104 57 296 1.7 7.8 0.00 0.06 0.06 54 1013.2
20260508145605 57 302 4.3 10.4 0.00 0.06 0.06 53 1013.3
20260508144604 56 290 2.6 7.8 0.00 0.06 0.06 58 1013.4
20260508144105 56 293 5.2 8.7 0.00 0.06 0.06 60 1013.6
20260508143603 56 278 2.6 5.2 0.00 0.06 0.06 60 1013.6
20260508143106 56 303 5.2 8.7 0.00 0.06 0.06 59 1013.6
20260508142103 56 337 2.6 7.8 0.00 0.06 0.06 63 1013.8
20260508141604 55 332 4.3 10.4 0.00 0.06 0.06 64 1013.8
20260508141105 56 259 3.5 7.8 0.00 0.06 0.06 65 1013.8
20260508140604 55 266 3.5 7.0 0.00 0.06 0.06 66 1013.8
20260508140103 54 290 3.5 7.8 0.00 0.06 0.06 66 1013.8
20260508135604 54 346 5.2 10.4 0.00 0.06 0.06 64 1013.9
20260508135104 54 315 3.5 10.4 0.00 0.06 0.06 66 1013.7
20260508134604 54 313 1.7 8.7 0.00 0.06 0.06 66 1013.7
20260508134103 54 351 2.6 6.1 0.00 0.06 0.06 66 1013.7
20260508133604 54 267 5.2 10.4 0.00 0.06 0.06 66 1013.7
20260508133104 54 342 1.7 7.0 0.00 0.06 0.06 71 1013.7
20260508132604 53 283 1.7 7.0 0.00 0.06 0.06 71 1013.7
20260508132104 53 6 1.7 2.6 0.00 0.06 0.06 75 1013.7
20260508131604 51 332 1.7 6.1 0.00 0.06 0.06 75 1013.8
20260508131103 51 294 5.2 10.4 0.00 0.06 0.06 75 1013.9
20260508130604 51 292 2.6 8.7 0.00 0.06 0.06 77 1014.0
20260508130105 51 357 4.3 8.7 0.00 0.06 0.06 78 1014.0
20260508124603 50 269 1.7 7.0 0.00 0.06 0.06 82 1014.0
20260508124103 49 318 0.9 4.3 0.00 0.06 0.06 82 1013.9
20260508123104 48 296 3.5 7.0 0.00 0.06 0.06 84 1013.9
20260508122604 48 287 0.9 2.6 0.00 0.06 0.06 85 1013.8
20260508122104 48 203 0.9 4.3 0.00 0.06 0.06 86 1013.7
20260508121605 47 350 3.5 8.7 0.00 0.06 0.06 86 1014.1
20260508121104 47 292 4.3 7.8 0.00 0.06 0.06 87 1014.2
20260508120604 47 294 2.6 6.1 0.00 0.06 0.06 88 1014.3
20260508120104 46 309 2.6 7.8 0.00 0.06 0.06 88 1014.3
20260508115604 46 314 1.7 6.1 0.00 0.06 0.06 89 1014.3